Probability
18 22 26 29 29 26 20 14 10 7 5 3 1 0 0 0 0 0 0 0 0 0 0 0 0 0 0 0 0 0 0 0 0 0 0 0 0 0 0 0 0 0 0
25 26 28 30 30 27 21 15 11 9 7 4 2 0 0 0 0 0 0 0 0 0 0 0 0 0 0 0 0 0 0 0 0 0 0 0 0 0 0 0 0 0 0
32 31 31 32 32 30 25 19 15 12 10 8 5 2 1 0 0 0 0 0 0 0 0 0 0 0 0 0 0 0 0 0 0 0 0 0 0 0 0 0 0 0 0
35 33 34 36 35 32 29 25 20 16 14 12 9 6 3 1 0 0 0 0 0 0 0 0 0 0 0 0 0 0 0 0 0 0 0 0 0 0 0 0 0 0 0
34 34 37 41 39 35 31 28 25 20 16 14 11 8 5 3 1 0 0 0 0 0 0 0 0 0 0 0 0 0 0 0 0 0 0 0 0 0 0 0 0 0 0
32 35 40 44 43 38 32 28 26 22 18 15 11 9 8 6 5 2 1 0 0 0 0 0 0 0 0 0 0 0 0 0 0 0 0 0 0 0 0 0 0 0 0
35 38 42 45 45 41 34 28 26 24 21 17 12 9 8 10 10 7 3 1 1 1 1 0 0 0 0 0 0 0 0 0 0 0 0 0 0 0 0 0 0 0 0
40 41 42 43 44 42 36 31 29 26 23 20 16 11 8 10 11 10 7 4 3 2 2 1 0 0 0 0 0 0 0 0 0 0 0 0 0 0 0 0 0 0 0
42 42 41 40 40 39 36 31 28 25 22 20 17 12 8 7 9 10 9 7 5 4 3 2 1 0 0 0 0 0 0 0 0 0 0 0 0 0 0 0 0 0 0
43 42 40 38 37 36 32 28 25 22 18 15 13 9 5 4 4 6 7 7 7 6 4 3 1 0 0 0 0 0 0 0 0 0 0 0 0 0 0 0 0 0 0
39 39 38 37 36 34 31 27 23 18 14 12 10 7 4 3 2 2 4 6 7 6 5 2 1 0 0 0 0 0 0 0 0 0 0 0 0 0 0 0 0 0 0
31 32 34 35 35 34 32 29 24 18 13 11 10 8 7 5 2 1 1 3 5 5 3 1 0 0 0 0 0 0 0 0 0 0 0 0 0 0 0 0 0 0 0
25 26 29 32 32 32 31 29 25 18 13 11 10 9 8 6 3 1 1 2 3 3 1 0 0 0 0 0 0 0 0 0 0 0 0 0 0 0 0 0 0 0 0
21 21 24 26 27 27 28 27 24 19 14 12 10 8 8 6 4 2 2 3 3 2 1 0 0 0 0 0 0 0 0 0 0 0 0 0 0 0 0 0 0 0 0
17 18 19 20 20 22 25 23 21 19 15 11 8 7 7 7 5 3 3 3 3 2 1 0 0 0 0 0 0 0 0 0 0 0 0 0 0 0 0 0 0 0 0
16 17 16 16 16 19 21 20 18 17 14 10 8 7 7 7 5 3 2 2 3 2 1 0 0 0 0 0 0 0 0 0 0 0 0 0 0 0 0 0 0 0 0
16 16 14 13 13 16 17 16 16 15 14 11 9 8 7 7 6 4 3 2 2 2 1 0 0 0 0 0 0 0 0 0 0 0 0 0 0 0 0 0 0 0 0
15 14 11 9 10 12 13 13 13 13 13 12 11 9 8 7 6 6 4 2 2 2 1 0 0 0 0 0 0 0 0 0 0 0 0 0 0 0 0 0 0 0 0
13 12 9 7 7 8 9 10 10 11 10 10 9 9 8 8 7 7 6 4 2 1 0 0 0 0 0 0 0 0 0 0 0 0 0 0 0 0 0 0 0 0 0
12 10 8 6 6 6 6 7 8 8 8 8 8 8 7 8 8 8 7 5 2 1 0 0 0 0 0 0 0 0 0 0 0 0 0 0 0 0 0 0 0 0 0
11 9 7 6 5 5 6 6 6 6 7 8 9 8 8 8 9 9 8 5 2 0 0 0 0 0 0 0 0 0 0 0 0 0 0 0 0 0 0 0 0 0 0
10 8 6 4 4 4 6 6 5 4 5 7 8 8 8 9 10 9 7 4 2 1 0 0 0 0 0 0 0 0 0 0 0 0 0 0 0 0 0 0 0 0 0
9 8 5 4 3 4 5 6 4 4 4 6 6 7 8 9 10 8 5 3 2 1 0 0 0 0 0 0 0 0 0 0 0 0 0 0 0 0 0 0 0 0 0
10 8 6 4 3 3 4 4 3 3 4 5 6 6 7 9 9 7 4 3 1 1 0 0 0 0 0 0 0 0 0 0 0 0 0 0 0 0 0 0 0 0 0
10 8 6 4 3 3 3 3 3 3 4 6 6 6 6 7 7 5 3 2 1 0 0 0 0 0 0 0 0 0 0 0 0 0 0 0 0 0 0 0 0 0 0
10 9 6 4 2 2 2 2 3 3 4 6 6 6 5 6 6 4 3 2 1 0 0 0 0 0 0 0 0 0 0 0 0 0 0 0 0 0 0 0 0 0 0
Wind_Speed
10 13 14 13 13 13 12 12 12 11 11 11 12 12 12 12 13 12 12 13 12 13 13 14 15 15 15 15 16 16 16 16 17 17 16 15 15 16 16 15 14 12 18
13 14 14 13 13 13 12 12 11 11 11 11 12 12 12 12 12 12 12 12 12 13 14 14 14 15 15 15 15 15 15 14 14 14 13 13 14 16 17 17 15 11 17
14 14 13 12 13 13 12 11 11 11 11 11 11 12 12 12 12 12 12 12 12 13 14 14 14 14 14 14 14 13 12 11 10 9 10 7 10 16 17 16 15 17 17
13 13 12 12 13 13 12 12 11 11 11 11 11 12 12 12 12 12 12 12 13 13 13 14 14 14 13 13 12 11 9 7 6 7 6 7 8 14 16 16 16 16 16
12 11 12 13 13 13 12 12 11 11 11 11 11 11 11 11 11 11 12 12 12 12 13 13 13 13 12 12 11 10 8 7 7 8 8 8 7 14 16 16 16 16 16
10 10 12 12 13 13 12 12 11 11 11 11 11 11 11 11 11 11 12 12 12 12 13 13 12 12 11 11 10 8 6 6 6 6 7 7 6 13 15 15 15 15 15
9 9 11 12 12 13 12 11 11 11 10 11 11 11 11 11 11 11 11 12 12 12 12 13 12 12 11 10 9 8 6 6 6 7 7 7 8 14 14 14 14 14 14
9 10 10 11 11 12 12 11 11 10 10 10 10 10 10 11 11 11 11 11 12 12 12 12 12 11 11 10 8 7 7 7 7 9 8 6 10 13 13 13 13 13 14
8 9 8 8 9 10 10 10 10 10 9 10 9 10 9 9 10 11 10 11 11 12 12 12 12 11 10 9 8 6 7 8 6 6 8 6 10 12 13 13 13 13 13
7 7 7 6 6 7 7 10 10 9 9 9 9 9 9 8 9 9 9 10 11 11 11 11 11 10 9 8 6 5 5 6 5 7 5 6 11 12 12 12 12 12 12
5 5 5 5 5 6 6 9 9 9 9 8 8 9 7 5 5 6 8 9 10 11 11 10 10 9 8 6 4 3 3 3 5 5 5 8 11 12 12 11 11 12 12
3 3 4 4 4 5 5 6 5 5 6 5 5 5 3 3 4 6 7 8 9 9 9 9 8 7 5 2 2 2 2 3 5 5 5 9 11 11 11 11 11 11 11
2 2 2 3 4 4 3 4 3 3 4 4 5 5 3 3 4 4 3 4 5 6 4 5 5 2 2 2 2 2 2 3 4 4 5 9 10 11 11 10 10 10 10
2 2 2 2 3 3 3 3 4 3 3 3 4 5 3 3 3 3 3 3 3 2 3 3 2 2 2 3 3 3 3 3 4 4 4 9 9 10 10 9 9 9 8
2 1 1 2 2 3 3 3 4 4 4 4 3 4 4 3 3 3 2 3 3 3 3 3 2 3 3 3 3 4 4 4 5 5 4 8 8 9 9 9 8 8 8
2 2 1 1 2 2 2 2 3 4 4 4 3 4 4 3 3 3 3 3 3 3 3 2 3 3 3 3 3 3 4 4 4 5 4 5 7 7 8 8 7 7 7
2 1 2 1 2 2 2 3 3 3 4 4 4 4 4 4 4 3 3 3 3 3 3 3 3 3 3 3 3 3 3 3 4 4 4 3 3 5 7 7 7 7 6
2 2 1 1 1 2 2 2 2 3 4 4 3 3 4 4 4 4 3 3 3 3 3 3 3 3 3 3 3 2 3 3 4 4 4 3 3 3 4 6 7 6 6
2 2 2 2 1 2 2 1 2 3 3 3 4 3 3 4 4 4 3 3 3 3 3 3 3 3 4 3 3 3 3 2 2 3 4 4 3 3 3 4 5 5 5
2 2 3 2 2 2 2 2 1 3 3 3 3 4 4 3 4 4 3 4 4 3 3 3 4 4 3 3 3 3 2 2 2 2 3 3 2 3 3 3 2 2 3
3 3 3 3 2 2 2 2 2 2 3 2 3 5 5 4 4 4 4 4 4 3 4 4 4 5 3 3 3 2 2 2 2 1 2 2 2 2 2 2 2 1 1
3 3 3 3 3 2 2 2 2 2 2 3 2 4 5 5 5 5 5 4 4 3 4 5 5 4 3 3 3 3 1 1 1 1 1 2 2 2 2 2 2 2 1
2 3 3 3 3 2 2 2 2 2 2 2 3 3 4 5 5 5 5 5 5 4 4 5 5 5 4 2 2 3 3 2 1 0 1 1 2 2 1 2 2 1 1
1 2 2 2 1 2 2 3 4 3 3 3 3 3 4 5 5 5 5 5 5 4 4 4 4 4 5 4 2 1 2 3 3 1 1 1 1 2 2 1 1 1 1
1 1 2 2 1 1 2 3 3 3 2 3 4 5 4 4 5 5 6 5 5 4 4 4 4 4 4 4 3 2 1 1 2 3 2 1 1 1 2 2 2 1 1
1 1 1 2 1 1 1 2 2 3 3 4 4 5 4 3 4 5 5 5 5 4 5 4 5 5 3 3 3 2 2 2 2 2 2 2 2 2 2 1 2 2 1
Wind_Direction
126 134 140 135 132 127 127 124 121 121 120 119 115 111 109 106 103 101 99 99 97 98 97 95 92 88 87 87 86 85 84 83 82 80 76 74 75 77 78 76 74 73 77
128 135 138 135 132 128 125 126 123 122 122 121 119 116 113 111 109 107 104 101 99 99 99 96 93 91 90 90 91 90 90 90 90 88 82 74 73 76 77 75 77 79 78
126 134 138 133 131 128 124 121 124 125 124 122 121 120 116 114 112 108 106 103 101 99 100 97 94 92 91 91 92 92 93 93 92 93 90 84 79 80 81 81 80 80 79
126 135 138 133 132 129 126 123 120 123 124 124 122 119 118 115 113 108 106 104 103 100 99 97 95 92 91 90 90 90 90 84 75 79 84 82 80 84 83 83 82 81 80
124 132 132 133 132 131 128 125 124 122 123 124 122 120 118 114 113 110 106 103 102 101 101 99 97 94 91 90 89 88 82 64 62 75 77 77 75 83 82 82 82 83 82
122 129 132 134 134 132 130 128 125 126 124 121 123 121 118 115 113 110 106 104 102 102 104 103 100 97 94 93 90 83 64 50 63 77 78 79 79 86 84 83 83 83 83
120 121 134 134 135 135 133 131 128 127 126 123 120 124 122 118 114 109 108 107 107 106 106 106 104 101 98 95 89 74 53 49 76 75 75 75 83 89 87 85 82 81 84
117 121 134 135 134 135 135 133 130 128 126 123 123 121 124 120 116 111 110 110 111 111 108 106 105 104 102 97 87 66 45 54 81 84 79 75 86 89 87 86 84 82 81
113 120 130 139 136 131 129 130 129 126 124 123 121 117 114 118 117 114 111 113 113 110 109 107 105 104 101 97 88 64 46 48 62 83 87 78 87 90 88 87 87 85 83
110 120 131 137 141 141 136 129 125 123 120 118 116 114 111 115 118 115 110 112 114 114 111 110 109 106 102 98 87 62 43 45 72 77 80 86 89 91 90 89 88 87 85
101 120 127 139 139 142 145 137 129 124 122 121 121 123 123 123 124 119 113 113 115 117 116 115 114 112 106 100 91 69 47 66 82 79 80 92 94 93 91 89 88 87 85
90 110 126 131 139 141 148 144 145 142 141 137 136 138 135 118 117 120 117 118 118 118 120 121 120 120 114 111 94 80 70 73 81 84 87 96 97 95 92 91 90 88 88
118 100 118 137 137 136 137 149 145 142 145 143 143 143 131 120 118 119 122 121 124 127 125 128 134 136 132 117 106 97 78 77 78 83 89 94 96 96 95 94 94 93 91
109 101 98 107 135 139 136 147 147 144 143 143 144 141 131 124 121 126 135 142 142 136 132 134 135 126 114 105 104 98 84 87 88 89 90 93 95 97 95 93 94 94 95
130 111 104 109 127 139 136 145 145 142 140 135 137 144 134 131 132 127 132 137 139 137 138 138 126 115 100 93 93 94 91 90 95 96 94 93 92 93 94 93 93 94 92
159 142 127 113 121 124 138 143 148 148 142 134 135 139 135 134 134 136 128 129 130 130 129 128 120 109 96 93 85 83 92 94 95 103 107 98 93 94 93 91 89 86 87
174 155 141 146 126 123 136 154 148 150 141 141 144 144 140 138 139 137 132 131 137 132 127 114 107 100 100 97 92 84 83 88 94 97 104 107 104 97 94 92 87 82 83
167 161 159 157 131 129 125 147 152 149 139 138 139 142 146 144 142 136 136 140 140 130 129 126 118 110 102 98 92 79 75 80 89 92 90 90 92 99 94 92 86 81 78
187 169 159 146 137 134 130 132 151 139 135 138 138 139 145 142 141 137 141 141 137 132 130 131 121 119 116 108 103 87 75 71 74 89 92 91 91 96 105 100 89 81 76
184 175 161 155 149 135 131 118 128 135 131 137 138 140 144 145 141 137 138 141 135 135 133 127 128 116 120 122 107 89 84 86 73 85 99 99 100 105 106 107 102 86 82
165 173 169 162 156 137 142 148 152 161 149 144 147 146 147 145 145 140 140 144 140 145 150 141 128 125 120 116 99 89 60 81 92 93 100 106 108 107 99 98 101 94 90
168 172 167 163 163 156 163 170 163 163 164 148 148 152 149 149 151 151 149 151 146 144 147 146 133 132 139 141 128 126 114 52 354 103 117 125 126 117 117 113 102 88 83
161 172 179 178 172 163 154 149 135 126 144 149 158 166 162 155 153 154 156 149 148 149 158 157 151 146 155 165 144 142 145 181 173 233 174 140 133 125 131 129 117 106 96
165 164 168 176 160 149 145 157 161 163 172 175 163 159 165 159 156 157 157 152 149 153 157 163 157 152 151 162 168 149 144 136 141 160 249 170 147 152 155 145 144 153 128
45 123 157 162 147 141 155 168 161 163 163 161 154 153 164 161 158 161 158 158 156 159 163 165 161 159 162 163 164 163 139 99 118 144 185 203 211 205 177 168 162 165 156
54 70 120 146 138 137 152 152 152 154 158 157 156 160 167 163 158 160 159 160 162 162 169 173 168 170 173 169 166 160 156 158 174 158 168 186 204 216 199 181 170 176 177